Weather History for Millville, NJ

Change the Weather History Date:

Tuesday, September 3, 2013

  Actual Average Record
Temperature  
Mean Temperature 75 °F -  
Max Temperature 84 °F 82 °F 96 °F (1953)
Min Temperature 64 °F 62 °F 47 °F (1967)
Cooling Degree Days 10    
Growing Degree Days 25 (Base 50)    
Moisture  
Dew Point 68 °F    
Average Humidity 81    
Maximum Humidity 100    
Minimum Humidity 45    
Precipitation  
Precipitation 0.01 in - - ()
Sea Level Pressure  
Sea Level Pressure 29.80 in    
Wind  
Wind Speed 3 mph (WNW)    
Max Wind Speed 12 mph    
Max Gust Speed 18 mph    
Visibility 7 miles    
Events      
Averages and records for this station are not official NWS values.
T = Trace of Precipitation, MM = Missing Value Source: NWS Daily Summary

Daily Weather History Graph

Daily Weather History Graph

Search for Another Location

Airport:

Trip Planner

Search our weather history database for the weather conditions in past years. The results will help you decide how hot, cold, wet, or windy it might be!

Date:

Astronomy

Sep. 03, 2013 Rise Set
Actual Time 6:30 AM EDT 7:27 PM EDT
Civil Twilight 6:03 AM EDT 7:54 PM EDT
Nautical Twilight 5:30 AM EDT 8:27 PM EDT
Astronomical Twilight 4:56 AM EDT 9:01 PM EDT
Moon 4:42 AM EDT (9/3) 6:13 PM EDT (9/3)
Length of Visible Light 13h 51m
Length of Day
12h 56m
Waning Crescent, 3% of the Moon is Illuminated
Sep 3
Waning Crescent
Sep 5
New
Sep 12
First Quarter
Sep 19
Full
Sep 26
Last Quarter

Hourly Weather History & Observations

Time (EDT) Temp. Heat Index Dew Point Humidity Pressure Visibility Wind Dir Wind Speed Gust Speed Precip Events Conditions
12:54 AM 73.9 °F - 73.0 °F 97% 29.76 in 7.0 mi Calm Calm - N/A   Clear
1:54 AM 73.0 °F - 72.0 °F 96% 29.74 in 5.0 mi Calm Calm - N/A   Clear
2:54 AM 72.0 °F - 72.0 °F 100% 29.73 in 4.0 mi Calm Calm - N/A   Clear
3:54 AM 73.9 °F - 73.0 °F 97% 29.74 in 5.0 mi Calm Calm - N/A   Mostly Cloudy
4:54 AM 72.0 °F - 71.1 °F 97% 29.74 in 5.0 mi Calm Calm - N/A   Clear
5:54 AM 73.0 °F - 72.0 °F 96% 29.75 in 3.0 mi Calm Calm - N/A   Clear
6:44 AM 73.4 °F - 73.4 °F 100% 29.76 in 2.5 mi Calm Calm - N/A   Clear
6:54 AM 73.9 °F - 73.0 °F 97% 29.76 in 2.5 mi Calm Calm - N/A   Clear
7:31 AM 73.4 °F - 73.4 °F 100% 29.77 in 1.8 mi Calm Calm - 0.01 in   Clear
7:38 AM 75.2 °F - 73.4 °F 94% 29.77 in 2.5 mi West 3.5 mph - 0.01 in   Clear
7:51 AM 75.2 °F - 73.4 °F 94% 29.78 in 3.0 mi West 4.6 mph - 0.01 in   Clear
7:54 AM 75.0 °F - 75.0 °F 100% 29.78 in 3.0 mi West 4.6 mph - 0.01 in   Clear
8:17 AM 75.2 °F - 75.2 °F 100% 29.79 in 4.0 mi WSW 5.8 mph - N/A   Scattered Clouds
8:25 AM 75.2 °F - 75.2 °F 100% 29.79 in 4.0 mi West 5.8 mph - N/A   Mostly Cloudy
8:54 AM 77.0 °F - 73.9 °F 90% 29.78 in 5.0 mi NW 8.1 mph - N/A   Mostly Cloudy
9:19 AM 78.8 °F - 73.4 °F 83% 29.80 in 7.0 mi WNW 9.2 mph - N/A   Mostly Cloudy
9:33 AM 78.8 °F - 71.6 °F 78% 29.80 in 9.0 mi NNW 10.4 mph - N/A   Mostly Cloudy
9:54 AM 77.0 °F - 69.1 °F 76% 29.81 in 10.0 mi NW 9.2 mph - N/A   Scattered Clouds
10:54 AM 79.0 °F - 69.1 °F 72% 29.81 in 10.0 mi NW 8.1 mph - N/A   Partly Cloudy
11:54 AM 82.0 °F 85.5 °F 69.1 °F 65% 29.80 in 10.0 mi WNW 9.2 mph - N/A   Clear
12:54 PM 82.9 °F 85.4 °F 66.9 °F 58% 29.81 in 10.0 mi WNW 9.2 mph - N/A   Clear
1:54 PM 84.0 °F 85.8 °F 64.9 °F 53% 29.81 in 10.0 mi WNW 10.4 mph - N/A   Partly Cloudy
2:54 PM 82.9 °F 83.7 °F 62.1 °F 49% 29.80 in 10.0 mi West 11.5 mph 18.4 mph N/A   Clear
3:54 PM 82.0 °F 82.1 °F 59.0 °F 45% 29.80 in 10.0 mi WNW 10.4 mph - N/A   Clear
4:54 PM 82.0 °F 82.7 °F 61.0 °F 49% 29.81 in 10.0 mi NNW 11.5 mph 16.1 mph N/A   Clear
5:54 PM 79.0 °F - 60.1 °F 52% 29.83 in 10.0 mi NW 5.8 mph - N/A   Clear
6:54 PM 77.0 °F - 62.1 °F 60% 29.83 in 10.0 mi WNW 4.6 mph - N/A   Clear
7:54 PM 68.0 °F - 64.9 °F 90% 29.84 in 10.0 mi West 4.6 mph - N/A   Clear
8:54 PM 73.0 °F - 60.1 °F 64% 29.88 in 10.0 mi NW 4.6 mph - N/A   Clear
9:54 PM 66.9 °F - 62.1 °F 84% 29.90 in 10.0 mi WNW 4.6 mph - N/A   Clear
10:54 PM 69.1 °F - 57.9 °F 68% 29.92 in 10.0 mi NW 5.8 mph - N/A   Clear
11:54 PM 64.9 °F - 57.9 °F 78% 29.92 in 10.0 mi NW 4.6 mph - N/A   Clear